Airport Information

KMFR - Rogue Valley Intl Medford Airport

KMFR 101053Z AUTO 24003KT 5SM BR BKN003 OVC006 02/02 A3024 RMK AO2 CIG 001V005 SLP245 T00220022


  • General Information

  • Coordinates: N 42°22'27"/ W 122°52'24"
  • Location: N/A
  • Surveyed Elevation: 1335 MSL

Operations

Flow Name Active Runways Conditions

Green background denotes normal operations.


Common Frequencies

Callsign Frequency Position Name

More at the Document Center


Charts